DW3733 Luzzi (cosenza) IT current weather conditions

sailwx.info

Wind from 210

Air temperature 23.3° C
Dewpoint 16.9° C

Last reported at 2014-Jul-28 19:43 UTC.
Time now 2014-Jul-28 20:37 UTC

Location: N 39°27' E 016°16'.
View on Google Maps.

See reports from other nearby stations

  
Tides and Currents Weather Stations Pressure Air Temp Water Temp Dewpoint Dewpoint Depression Visibility Wind Speed Wind Dir Waves Ship Positions
date/time (UTC)wind fromknots sea level pressurealtimeterstation pressurevisibilityair tempwater tempwave heightnotes
2014-Jul-28 19:43 210 23.3
2014-Jul-28 19:33 113 0 gusting 1 23.9
2014-Jul-28 19:23 194 0 gusting 1 23.9
2014-Jul-28 19:13 160 0 gusting 1 24.4
2014-Jul-28 19:03 167 0 gusting 2 24.4
2014-Jul-28 18:53 138 0 gusting 2 24.4
2014-Jul-28 18:43 168 0 gusting 1 25.0
2014-Jul-28 18:33 180 0 gusting 2 25.6
2014-Jul-28 18:23 255 0 gusting 2 25.6
2014-Jul-28 18:13 158 2 gusting 4 26.1
2014-Jul-28 18:03 180 0 gusting 6 26.7
2014-Jul-28 17:53 211 4 gusting 6 26.7
2014-Jul-28 17:43 187 2 gusting 6 26.7
2014-Jul-28 17:33 180 2 gusting 6 26.7
2014-Jul-28 17:23 218 2 gusting 6 27.2
2014-Jul-28 17:13 172 2 gusting 6 27.2
2014-Jul-28 17:03 176 1 gusting 7 27.8
2014-Jul-28 16:53 204 4 gusting 7 27.8
2014-Jul-28 16:43 248 1 gusting 6 28.3
2014-Jul-28 16:33 090 0 gusting 8 28.3
2014-Jul-28 16:23 197 3 gusting 8 28.9
2014-Jul-28 16:13 28.9
2014-Jul-28 16:03 282 1 gusting 5 29.4
2014-Jul-28 15:53 267 0 gusting 5 29.4
2014-Jul-28 15:43 206 1 gusting 6 28.9
2014-Jul-28 15:33 204 2 gusting 6 29.4
2014-Jul-28 15:23 152 1 gusting 6 29.4
2014-Jul-28 15:13 289 0 gusting 8 29.4
2014-Jul-28 15:03 327 1 gusting 6 30.0
2014-Jul-28 14:53 218 2 gusting 6 29.4
2014-Jul-28 14:43 180 1 gusting 8 29.4
2014-Jul-28 14:33 092 4 gusting 8 30.0
2014-Jul-28 14:23 334 1 gusting 6 30.0
2014-Jul-28 14:13 237 2 gusting 6 30.6
2014-Jul-28 14:03 026 2 gusting 6 30.0
2014-Jul-28 13:53 104 3 gusting 10 30.6
2014-Jul-28 13:43 180 2 gusting 13 30.6
2014-Jul-28 13:33 180 1 gusting 11 30.6
2014-Jul-28 13:23 018 2 gusting 11 30.0
2014-Jul-28 13:13 068 2 gusting 10 30.0
2014-Jul-28 13:03 315 4 gusting 8 30.0
2014-Jul-28 12:53 331 1 gusting 8 30.6
2014-Jul-28 12:43 315 2 gusting 7 30.0
2014-Jul-28 12:33 197 4 gusting 10 30.0
2014-Jul-28 12:23 015 2 gusting 6 30.0
2014-Jul-28 12:13 341 2 gusting 5 30.6
2014-Jul-28 12:03 167 1 gusting 6 30.0
2014-Jul-28 11:53 213 2 gusting 8 30.0
2014-Jul-28 11:43 258 1 gusting 6 30.6
2014-Jul-28 11:33 245 3 gusting 10 30.0
2014-Jul-28 11:23 041 3 gusting 7 30.6
2014-Jul-28 11:13 293 2 gusting 8 30.0
2014-Jul-28 11:03 153 2 gusting 11 30.0
2014-Jul-28 10:53 029 5 gusting 10 30.0
2014-Jul-28 10:43 293 1 gusting 12 30.0
2014-Jul-28 10:33 182 2 gusting 10 30.0
2014-Jul-28 10:23 151 4 gusting 8 30.0
2014-Jul-28 10:13 082 2 gusting 6 30.0
2014-Jul-28 10:03 273 2 gusting 7 30.0
2014-Jul-28 09:53 308 1 gusting 6 30.0
2014-Jul-28 09:43 325 2 gusting 6 29.4
2014-Jul-28 09:33 281 5 gusting 8 29.4
2014-Jul-28 09:23 031 2 gusting 6 28.9
2014-Jul-28 09:13 212 1 gusting 8 28.9
2014-Jul-28 09:03 180 2 gusting 6 28.3
2014-Jul-28 08:53 148 4 gusting 7 28.3
2014-Jul-28 08:43 189 2 gusting 6 27.8
2014-Jul-28 08:33 211 2 gusting 10 28.3
2014-Jul-28 08:23 152 4 gusting 8 27.8
2014-Jul-28 08:13 254 3 gusting 7 27.8
2014-Jul-28 08:03 222 4 gusting 6 27.8
2014-Jul-28 07:53 244 2 gusting 6 27.2
2014-Jul-28 07:43 141 2 gusting 6 27.2
2014-Jul-28 07:33 222 3 gusting 6 26.7
2014-Jul-28 07:23 225 2 gusting 8 26.7
2014-Jul-28 07:13 195 2 gusting 6 26.7
2014-Jul-28 07:03 225 4 gusting 10 26.1
2014-Jul-28 06:53 257 4 gusting 7 26.1
2014-Jul-28 06:43 203 5 gusting 7 25.6
2014-Jul-28 06:33 327 2 gusting 6 25.6
2014-Jul-28 06:23 286 2 gusting 5 25.0
2014-Jul-27 20:43 180 0 gusting 2 23.3
2014-Jul-27 20:33 204 0 gusting 2 23.3
2014-Jul-27 20:23 208 0 gusting 2 23.9
2014-Jul-27 20:13 142 2 gusting 5 23.9
2014-Jul-27 20:03 184 1 gusting 5 24.4
2014-Jul-27 19:53 222 0 gusting 2 24.4
2014-Jul-27 19:43 144 25.0
2014-Jul-27 19:33 208 1 gusting 5 25.0
2014-Jul-27 19:23 196 0 gusting 2 25.0
2014-Jul-27 19:13 215 0 gusting 5 25.0
2014-Jul-27 19:03 100 2 gusting 4 25.0
2014-Jul-27 18:53 138 1 gusting 4 25.0
2014-Jul-27 18:43 178 0 gusting 6 25.6
2014-Jul-27 18:33 257 2 gusting 6 25.6
2014-Jul-27 18:23 202 2 gusting 5 25.6
2014-Jul-27 18:13 147 0 gusting 5 25.6
2014-Jul-27 18:03 187 1 gusting 5 25.6
2014-Jul-27 17:53 216 2 gusting 6 25.6
2014-Jul-27 17:43 160 2 gusting 10 26.1
2014-Jul-27 17:33 195 4 gusting 6 26.1
2014-Jul-27 17:23 225 2 gusting 7 26.1
2014-Jul-27 17:13 207 2 gusting 7 26.1
2014-Jul-27 17:03 180 2 gusting 7 26.1
2014-Jul-27 16:53 227 3 gusting 8 26.7
2014-Jul-27 16:43 112 3 gusting 8 26.7
2014-Jul-27 16:33 188 4 gusting 11 26.7
2014-Jul-27 16:23 195 5 gusting 11 26.7
2014-Jul-27 16:13 262 5 gusting 11 27.2
2014-Jul-27 16:03 193 5 gusting 13 27.2
2014-Jul-27 15:53 225 5 gusting 12 27.8
2014-Jul-27 15:43 215 7 gusting 12 28.3
2014-Jul-27 15:33 225 6 gusting 12 28.3
2014-Jul-27 15:23 189 5 gusting 10 28.3
2014-Jul-27 15:13 209 6 gusting 11 28.9
2014-Jul-27 15:03 099 4 gusting 11 28.9
2014-Jul-27 14:53 225 4 gusting 11 28.9
2014-Jul-27 14:43 125 5 gusting 12 29.4
2014-Jul-27 14:33 070 5 gusting 12 30.0
2014-Jul-27 14:23 253 4 gusting 13 29.4
2014-Jul-27 14:13 269 4 gusting 13 29.4
2014-Jul-27 14:03 305 6 gusting 12 30.0
2014-Jul-27 13:53 172 2 gusting 14 30.0
2014-Jul-27 13:43 260 4 gusting 13 30.0
2014-Jul-27 13:33 142 1 gusting 13 30.0
2014-Jul-27 13:23 195 4 gusting 13 30.0
2014-Jul-27 13:13 219 5 gusting 13 30.6
2014-Jul-27 13:03 251 4 gusting 13 30.6
2014-Jul-27 12:53 188 2 gusting 12 30.6
2014-Jul-27 12:43 332 2 gusting 13 30.6
2014-Jul-27 12:33 148 2 gusting 10 30.6
2014-Jul-27 12:23 267 4 gusting 14 30.6
2014-Jul-27 12:13 239 7 gusting 14 30.6
2014-Jul-27 12:03 220 5 gusting 13 30.6
2014-Jul-27 11:53 180 4 gusting 13 30.6
2014-Jul-27 11:43 339 2 gusting 13 30.6
2014-Jul-27 11:33 180 6 gusting 14 30.6
2014-Jul-27 11:23 140 2 gusting 11 30.6
2014-Jul-27 11:13 180 5 gusting 10 30.6
2014-Jul-27 11:03 196 5 gusting 15 30.6
2014-Jul-27 10:53 294 6 gusting 13 30.6
2014-Jul-27 10:43 197 6 gusting 15 30.0
2014-Jul-27 10:33 206 9 gusting 18 30.0
2014-Jul-27 10:23 203 9 gusting 13 30.0
2014-Jul-27 10:13 218 6 gusting 13 30.6
2014-Jul-27 10:03 214 6 gusting 14 30.0
2014-Jul-27 09:53 228 6 gusting 13 30.0
2014-Jul-27 09:43 195 6 gusting 13 30.0
2014-Jul-27 09:33 180 4 gusting 13 29.4
2014-Jul-27 09:23 225 6 gusting 13 30.0
2014-Jul-27 09:13 210 7 gusting 13 30.0
2014-Jul-27 09:03 29.4
2014-Jul-27 08:53 230 7 gusting 12 29.4
2014-Jul-27 08:43 242 5 gusting 14 29.4
2014-Jul-27 08:33 274 7 gusting 13 29.4
2014-Jul-27 08:23 184 7 gusting 15 29.4
2014-Jul-27 08:13 220 6 gusting 15 28.9
2014-Jul-27 08:03 225 7 gusting 15 29.4
2014-Jul-27 07:53 225 6 gusting 13 28.9
2014-Jul-27 07:43 163 3 gusting 10 28.9
2014-Jul-27 07:33 225 5 gusting 10 28.9
2014-Jul-27 07:23 192 5 gusting 10 28.3
2014-Jul-27 07:13 225 4 gusting 10 28.3
2014-Jul-27 07:03 230 5 gusting 10 28.3
2014-Jul-27 06:53 135 4 gusting 8 27.8
2014-Jul-27 06:43 238 2 gusting 8 27.8
2014-Jul-27 06:33 225 4 gusting 11 27.2
2014-Jul-27 06:23 162 2 gusting 7 26.7
2014-Jul-27 06:13 193 3 gusting 10 26.7
2014-Jul-27 06:03 223 5 gusting 10 26.1
2014-Jul-27 05:53 298 4 gusting 8 26.1
2014-Jul-27 05:43 219 4 gusting 7 25.6
2014-Jul-27 05:33 197 4 gusting 6 25.0
2014-Jul-26 21:23 100 22.8
2014-Jul-26 21:13 090 0 gusting 1 23.3
2014-Jul-26 21:03 045 0 gusting 1 23.9
2014-Jul-26 20:53 315 0 gusting 0 23.9
2014-Jul-26 20:43 315 0 gusting 1 23.3
2014-Jul-26 20:33 090 0 gusting 1 23.9
2014-Jul-26 20:23 090 0 gusting 1 23.9
2014-Jul-26 20:13 090 0 gusting 1 24.4
2014-Jul-26 20:03 315 25.0